[[{"header":{"parameterUnit":"m.s-1","parameterCategory":1,"la1":30.2991,"la2":30.254,"lo1":-89.0895,"lo2":-89.0444,"dx":0.0017,"dy":0.0017,"nx":28,"ny":28,"refTime":"2022-12-07T03:00:00:Z","depth":0,"parameterNumber":2,"parameterNumberName":"U-component_of_WINDS"},"data":[0,0,0,0,0,0,0,0,0,0,0,0,0,0,0,0,0,0,0,0,0,0,0,0,0,0,0,0,0,0,0,0,0,0,0,0,0,0,0,0,0,0,0,0,0,0,0,0,0,0,0,0,0,0,0,0,0,0,-0.7365,-0.7365,0,-0.7353,-0.7353,-0.7353,-0.7286,-0.7284,-0.7283,-0.7281,-0.727,-0.7272,-0.7273,0,0,0,0,0,0,0,0,0,0,0,0,0,-0.7331,-0.7332,-0.7365,-0.7365,-0.7365,-0.7353,-0.7353,-0.7353,-0.7286,-0.7284,-0.7282,-0.7281,-0.727,-0.7271,-0.7273,0,0,0,0,0,0,0,0,0,0,0,0,0,-0.7335,-0.7332,-0.7365,-0.733,-0.7327,-0.7353,-0.7353,-0.7353,-0.7287,-0.7284,-0.7282,-0.728,-0.727,-0.7271,-0.7273,-0.7333,0,0,-0.7279,-0.7279,0,0,0,0,0,0,0,0,-0.7335,-0.7337,-0.7336,-0.7333,-0.7329,-0.7319,-0.7337,-0.7346,-0.7287,-0.7302,-0.7281,-0.7278,-0.7289,-0.7289,-0.7292,-0.7332,-0.7332,-0.7279,-0.728,-0.7281,-0.7281,0,0,0,0,0,0,0,-0.7335,-0.7337,-0.736,-0.7336,-0.7332,-0.7315,-0.7313,-0.7338,-0.7309,-0.7301,-0.7296,-0.7295,-0.7286,-0.729,-0.7291,-0.7331,-0.7279,-0.728,-0.7281,-0.7282,-0.7419,-0.7422,0,0,0,0,0,0,-0.7339,-0.7337,-0.7361,-0.736,-0.7326,-0.7318,-0.7316,-0.7324,-0.7309,-0.7304,-0.7297,-0.7292,-0.7288,-0.7289,-0.729,-0.7358,-0.7281,-0.7282,-0.7283,-0.7417,-0.742,-0.7423,0,0,0,0,0,0,-0.7339,-0.7342,-0.7361,-0.7347,-0.7348,-0.7321,-0.7332,-0.7325,-0.7329,-0.7306,-0.73,-0.7306,-0.7286,-0.7288,-0.7322,-0.7357,-0.7283,-0.7285,-0.7414,-0.7418,-0.7421,-0.7495,0,0,0,0,0,0,-0.7338,-0.7342,-0.7365,-0.7348,-0.7349,-0.7394,-0.7334,-0.7327,-0.7332,-0.7326,-0.7313,-0.7309,-0.7285,-0.732,-0.7324,-0.7358,-0.7286,-0.7411,-0.7416,-0.742,-0.749,-0.7501,-0.7511,0,0,0,0,0,-0.7337,-0.7386,-0.7366,-0.7369,-0.7376,-0.7396,-0.7396,-0.7367,-0.7335,-0.7357,-0.7342,-0.7309,-0.7353,-0.7324,-0.7328,-0.7363,-0.7408,-0.7414,-0.742,-0.7485,-0.7499,-0.7511,0,0,0,0,0,0,-0.7408,-0.7384,-0.7361,-0.7406,-0.7403,-0.7384,-0.7411,-0.7383,-0.739,-0.7383,-0.7347,-0.7345,-0.7384,-0.7377,-0.7346,-0.742,-0.7375,-0.7382,-0.7423,-0.7436,-0.7447,-0.7447,-0.7288,0,0,0,0,0,-0.7429,-0.7446,-0.7424,-0.7466,-0.7466,-0.7439,-0.7446,-0.7424,-0.742,-0.7418,-0.7406,-0.7404,-0.7417,-0.7426,-0.7437,-0.7488,-0.7485,-0.7515,-0.7525,-0.7534,-0.7541,-0.7567,-0.758,-0.7442,-0.7442,-0.7442,0,0,-0.7472,-0.7461,-0.7474,-0.748,-0.7475,-0.7494,-0.7438,-0.7461,-0.7474,-0.7422,-0.7453,-0.7444,-0.7439,-0.7483,-0.7501,-0.7478,-0.7578,-0.7542,-0.7549,-0.755,-0.7574,-0.7587,-0.7599,-0.7446,-0.7445,-0.7444,0,0,-0.756,-0.7554,-0.7587,-0.7584,-0.7577,-0.7559,-0.7567,-0.7553,-0.7544,-0.7575,-0.7536,-0.7552,-0.7576,-0.7573,-0.7575,-0.7663,-0.7632,-0.7667,-0.7723,-0.7749,-0.776,-0.777,-0.78,-0.7812,-0.7674,-0.7674,-0.7674,0,-0.7615,-0.7641,-0.7609,-0.7633,-0.7637,-0.759,-0.7624,-0.7622,-0.762,-0.7623,-0.7598,-0.7625,-0.7619,-0.7661,-0.7682,-0.7685,-0.7694,-0.7668,-0.7761,-0.777,-0.7779,-0.7808,-0.7819,-0.7678,-0.7678,-0.7677,-0.7677,0,-0.7709,-0.7728,-0.7756,-0.7754,-0.7761,-0.779,-0.7762,-0.7773,-0.775,-0.7735,-0.7767,-0.7758,-0.7765,-0.7774,-0.7752,-0.7813,-0.7798,-0.7768,-0.7721,-0.7797,-0.7823,-0.7834,-0.7684,-0.7683,-0.7682,-0.768,0,0,-0.7841,-0.782,-0.7831,-0.7829,-0.7819,-0.7833,-0.786,-0.7867,-0.7877,-0.7877,-0.7899,-0.792,-0.7891,-0.7893,-0.7871,-0.7894,-0.7963,-0.786,-0.7859,-0.7879,-0.8029,-0.8052,-0.8065,-0.7943,-0.7945,-0.7947,-0.8029,0,-0.7925,-0.797,-0.7941,-0.799,-0.8007,-0.7963,-0.7986,-0.7983,-0.7969,-0.7982,-0.7967,-0.7982,-0.7943,-0.7944,-0.7965,-0.795,-0.7993,-0.7944,-0.7963,-0.7964,-0.7965,-0.8079,-0.8103,-0.8182,-0.804,-0.8041,-0.8043,0,-0.8029,-0.8032,-0.8083,-0.8069,-0.8075,-0.8097,-0.81,-0.8113,-0.8108,-0.8096,-0.8099,-0.8071,-0.8097,-0.8052,-0.8087,-0.8055,-0.8061,-0.8055,-0.8057,-0.8057,-0.8008,-0.8082,-0.8206,-0.8218,-0.8059,-0.8057,-0.8056,0,-0.8119,-0.8137,-0.817,-0.817,-0.8154,-0.817,-0.8164,-0.8157,-0.8162,-0.8166,-0.817,-0.8177,-0.8181,-0.8187,-0.8161,-0.8131,-0.82,-0.8153,-0.8191,-0.8192,-0.8207,-0.8207,-0.8334,-0.8212,-0.8212,-0.8212,-0.8212,0,-0.8216,-0.8249,-0.821,-0.823,-0.8266,-0.8233,-0.8269,-0.8258,-0.8252,-0.8269,-0.8232,-0.8249,-0.8214,-0.8228,-0.8208,-0.824,-0.8243,-0.8234,-0.8228,-0.8237,-0.8238,-0.824,-0.8234,-0.8215,-0.8214,-0.8214,-0.8213,0,-0.8323,-0.8298,-0.8331,-0.8313,-0.8309,-0.8336,-0.8321,-0.8339,-0.8322,-0.8345,-0.8348,-0.8323,-0.8338,-0.8313,-0.8324,-0.8311,-0.8356,-0.8342,-0.8357,-0.8353,-0.8392,-0.8389,-0.8525,-0.8541,-0.841,-0.8411,-0.8412,0,-0.8386,-0.841,-0.8394,-0.8403,-0.8399,-0.8413,-0.8419,-0.8387,-0.8395,-0.8391,-0.8409,-0.842,-0.8427,-0.8452,-0.8435,-0.8444,-0.843,-0.8477,-0.8431,-0.8439,-0.843,-0.8429,-0.8431,-0.8486,-0.8488,-0.8489,-0.849,0,-0.85,-0.8486,-0.8495,-0.8501,-0.8508,-0.8511,-0.8511,-0.8521,-0.8487,-0.8498,-0.8511,-0.8517,-0.8528,-0.854,-0.8544,-0.8538,-0.8509,-0.8505,-0.8514,-0.8523,-0.8531,-0.8527,-0.8382,-0.8502,-0.8501,-0.85,-0.8499,-0.8499,-0.8586,-0.8605,-0.8597,-0.8608,-0.8605,-0.8606,-0.8621,-0.8607,-0.8618,-0.8624,-0.8605,-0.8623,-0.8617,-0.862,-0.8618,-0.8632,-0.8611,-0.8624,-0.8628,-0.8631,-0.8637,-0.8529,-0.8633,-0.8632,-0.8632,-0.8632,-0.8631,0,-0.8697,-0.869,-0.8701,-0.8701,-0.8711,-0.8682,-0.868,-0.869,-0.8706,-0.8703,-0.871,-0.8726,-0.8737,-0.8721,-0.8729,-0.8744,-0.8731,-0.8747,-0.8745,-0.8744,-0.8656,-0.8647,-0.8758,-0.8758,-0.8758,-0.8757,-0.8757,-0.8757,-0.8756,-0.8787,-0.8773,-0.8801,-0.8793,-0.881,-0.8812,-0.8813,-0.881,-0.8829,-0.8837,-0.8827,-0.8818,-0.8826,-0.8834,-0.8829,-0.8834,-0.8855,-0.8846,-0.8763,-0.8751,-0.8739,-0.873,-0.8857,-0.8857,-0.8933,-0.8934,-0.8934]},{"header":{"parameterUnit":"m.s-1","parameterCategory":1,"la1":30.2991,"la2":30.254,"lo1":-89.0895,"lo2":-89.0444,"dx":0.0017,"dy":0.0017,"nx":28,"ny":28,"refTime":"2022-12-07T03:00:00:Z","depth":0,"parameterNumber":3,"parameterNumberName":"V-component_of_WINDS"},"data":[0,0,0,0,0,0,0,0,0,0,0,0,0,0,0,0,0,0,0,0,0,0,0,0,0,0,0,0,0,0,0,0,0,0,0,0,0,0,0,0,0,0,0,0,0,0,0,0,0,0,0,0,0,0,0,0,0,0,0.6572,0.6572,0,0.6545,0.6545,0.6545,0.6561,0.6561,0.6562,0.6563,0.6532,0.6531,0.6529,0,0,0,0,0,0,0,0,0,0,0,0,0,0.6635,0.6634,0.6572,0.6572,0.6571,0.6545,0.6545,0.6545,0.6561,0.6562,0.6562,0.6563,0.6533,0.6531,0.6529,0,0,0,0,0,0,0,0,0,0,0,0,0,0.6608,0.6633,0.6572,0.6576,0.6576,0.6545,0.6545,0.6545,0.656,0.6562,0.6563,0.6564,0.6534,0.6531,0.6529,0.6491,0,0,0.6522,0.6521,0,0,0,0,0,0,0,0,0.6609,0.6606,0.6576,0.6576,0.6576,0.6558,0.6556,0.6527,0.656,0.6566,0.6563,0.6564,0.654,0.6537,0.6529,0.649,0.6489,0.6522,0.652,0.6519,0.6519,0,0,0,0,0,0,0,0.6611,0.6607,0.6561,0.6576,0.6576,0.6579,0.6576,0.6551,0.6547,0.6566,0.6567,0.6564,0.654,0.6531,0.6529,0.6488,0.6522,0.652,0.6518,0.6517,0.6418,0.6417,0,0,0,0,0,0,0.6613,0.6608,0.6562,0.6561,0.6596,0.6577,0.6574,0.6562,0.6547,0.6546,0.6563,0.6565,0.6535,0.6531,0.6528,0.6483,0.6519,0.6517,0.6516,0.6419,0.6418,0.6416,0,0,0,0,0,0,0.6614,0.6609,0.6563,0.6585,0.6579,0.6575,0.6561,0.6561,0.6553,0.6545,0.6544,0.6555,0.6536,0.6531,0.6501,0.6482,0.6516,0.6514,0.6421,0.6419,0.6417,0.6394,0,0,0,0,0,0,0.6616,0.6609,0.6595,0.6584,0.6578,0.6538,0.656,0.656,0.6549,0.6551,0.6537,0.6536,0.6536,0.6504,0.6499,0.648,0.6512,0.6422,0.642,0.6418,0.6396,0.6391,0.6387,0,0,0,0,0,0.6618,0.6589,0.6595,0.6589,0.6561,0.6536,0.6533,0.6534,0.6548,0.6533,0.6528,0.6536,0.6485,0.6501,0.6495,0.6475,0.6423,0.642,0.6418,0.6398,0.6392,0.6387,0,0,0,0,0,0,0.6597,0.6588,0.6594,0.656,0.6549,0.6539,0.6521,0.6528,0.6512,0.6515,0.6516,0.6513,0.6482,0.6475,0.6493,0.6438,0.6456,0.6452,0.6444,0.6438,0.6434,0.6436,0.651,0,0,0,0,0,0.6588,0.657,0.6563,0.6534,0.6528,0.6526,0.6515,0.6518,0.6506,0.6501,0.6494,0.6481,0.6463,0.645,0.6432,0.6396,0.6393,0.6379,0.6375,0.6371,0.6367,0.6348,0.6342,0.6407,0.6407,0.6407,0,0,0.657,0.6563,0.6551,0.6529,0.6521,0.6502,0.6522,0.65,0.6486,0.6497,0.6469,0.6463,0.6449,0.6416,0.6401,0.641,0.6349,0.6367,0.6365,0.6363,0.6344,0.6338,0.6333,0.6405,0.6405,0.6406,0,0,0.6527,0.652,0.6495,0.6487,0.6475,0.6474,0.6468,0.6457,0.6454,0.6426,0.6435,0.6417,0.6385,0.6375,0.6366,0.6321,0.6327,0.6315,0.6291,0.6272,0.6267,0.6263,0.6247,0.6241,0.6311,0.6311,0.6311,0,0.6505,0.6478,0.6481,0.646,0.645,0.6461,0.6437,0.6428,0.641,0.6403,0.6413,0.6374,0.6365,0.633,0.6319,0.6311,0.6304,0.6316,0.6268,0.6263,0.6259,0.6244,0.6238,0.6309,0.631,0.631,0.631,0,0.6452,0.6433,0.6414,0.6398,0.6387,0.6363,0.6363,0.6351,0.6354,0.6352,0.6323,0.6314,0.6295,0.6287,0.6289,0.6252,0.6258,0.6268,0.6286,0.6251,0.6237,0.6231,0.6307,0.6308,0.6308,0.6309,0,0,0.6393,0.6382,0.6375,0.6368,0.6356,0.6341,0.6318,0.6301,0.629,0.6278,0.6258,0.6231,0.6241,0.6231,0.6232,0.6216,0.6181,0.6228,0.6228,0.622,0.614,0.6132,0.6126,0.6186,0.6185,0.6184,0.6141,0,0.635,0.6312,0.6315,0.6279,0.6261,0.6272,0.6252,0.6242,0.624,0.6224,0.622,0.6201,0.6215,0.6209,0.6194,0.6189,0.6165,0.6192,0.6168,0.6167,0.6171,0.6118,0.611,0.607,0.6136,0.6135,0.6134,0,0.6294,0.6282,0.6243,0.6235,0.6228,0.621,0.6195,0.618,0.6169,0.6168,0.6157,0.6162,0.6139,0.6158,0.6126,0.6144,0.6134,0.6131,0.6129,0.6127,0.6148,0.6114,0.6057,0.6051,0.6125,0.6126,0.6126,0,0.6256,0.6229,0.6203,0.6197,0.6187,0.6174,0.6169,0.616,0.6149,0.6136,0.6129,0.6112,0.6103,0.609,0.609,0.6104,0.6058,0.6077,0.6056,0.6056,0.6045,0.6046,0.5986,0.6039,0.6039,0.6039,0.604,0,0.6207,0.6183,0.6186,0.617,0.6144,0.6148,0.6122,0.6118,0.611,0.6093,0.6101,0.6084,0.6086,0.6069,0.6069,0.6043,0.6038,0.6037,0.6037,0.6036,0.6036,0.6029,0.6032,0.6038,0.6038,0.6039,0.6039,0,0.6159,0.616,0.6133,0.6126,0.6124,0.6105,0.6098,0.6083,0.6082,0.606,0.6055,0.6053,0.6034,0.6033,0.601,0.6011,0.5978,0.5982,0.5982,0.5983,0.5962,0.5964,0.5895,0.5886,0.5946,0.5945,0.5945,0,0.6128,0.611,0.6102,0.6092,0.6087,0.607,0.606,0.6064,0.6053,0.604,0.6026,0.6008,0.5994,0.5963,0.5958,0.5942,0.5944,0.5921,0.5942,0.5942,0.5944,0.5945,0.5943,0.5917,0.5917,0.5916,0.5916,0,0.6072,0.6074,0.606,0.6046,0.6034,0.6023,0.6013,0.6004,0.6006,0.5994,0.5975,0.5964,0.5943,0.5925,0.5909,0.5902,0.5909,0.591,0.5904,0.5902,0.5904,0.5903,0.5971,0.5911,0.5911,0.5912,0.5912,0.5912,0.6032,0.6017,0.601,0.5994,0.5987,0.5977,0.5963,0.596,0.5945,0.5929,0.5932,0.5911,0.5901,0.588,0.5873,0.5857,0.5864,0.5856,0.5854,0.5852,0.585,0.5907,0.5854,0.5854,0.5854,0.5854,0.5854,0,0.5977,0.5973,0.5959,0.5945,0.5932,0.5942,0.5931,0.592,0.5902,0.5893,0.5879,0.5858,0.5841,0.5836,0.5819,0.5807,0.5809,0.5802,0.5803,0.5801,0.5844,0.585,0.58,0.58,0.58,0.58,0.58,0.58,0.5947,0.5923,0.5924,0.5896,0.5892,0.5873,0.5866,0.5857,0.585,0.5827,0.5813,0.581,0.5803,0.5786,0.577,0.5769,0.5762,0.5754,0.5754,0.5793,0.5798,0.5804,0.581,0.5752,0.5752,0.5713,0.5713,0.5713]}]]